Current Version              Previous Version:    01  02  03  04  05  06  07  08  09  10  11  12  13  14  15  16  17  18  19  20  21  22  23  24  25  26  27  28  29  30  
   31  32  33  34  35  36  37  38  39  40  41  42  43  44  45  46  47  48  49  50  51  52  53  54  55  56  57  58  59  60  

[Printable]
549
ASUS44 KEWX 011910
RWRTX
SOUTH TEXAS REGIONAL WEATHER ROUNDUP
NATIONAL WEATHER SERVICE AUSTIN/SAN ANTONIO TX
200 PM CDT FRI AUG 01 2014

NOTE: "FAIR" INDICATED FEW OR NO CLOUDS BELOW 12,000 FEET WITH NO
SIGNIFICANT WEATHER AND/OR OBSTRUCTIONS TO VISIBILITY.

* - THESE STATIONS ARE NOT NWS OR FAA STATIONS...AND ARE NOT SUBJECT
    TO NWS AND FAA QUALITY CONTROL.

TXZ171-172-183>190-012000-
TEXAS HILL COUNTRY AND EDWARDS PLATEAU

CITY           SKY/WX    TMP DP  RH WIND       PRES   REMARKS
JUNCTION       PTSUNNY   88  60  38 NE7       30.08F
*LLANO         SUNNY     84  63  48 N7        30.09F
BURNET         MOSUNNY   85  62  46 N9G18     30.09F
*HORSESHOE BAY SUNNY     85  61  43 NW10G20   30.06F
*KERRVILLE     PTSUNNY   86  64  48 N9        30.06F
*FREDERICKSBRG SUNNY     87  57  36 N3        30.07F
*ROCKSPRINGS   PTSUNNY   84  64  51 CALM      30.12F
*BOERNE STAGE  PTSUNNY   84  63  48 NE5       30.06F
*CASTROVILLE   PTSUNNY   91  62  37 E5        30.02F HX  92
HONDO          PTSUNNY   89  67  47 VRB3      30.03F HX  92
*UVALDE        PTSUNNY   92  70  47 NE6       30.02F HX  97
DEL RIO        MOSUNNY   91  67  44 CALM      30.01F HX  94
LAUGHLIN AFB   PTSUNNY   89  69  51 N6        30.02F HX  93
CARRIZO SPRGS  MOSUNNY   91  70  49 CALM      29.96F HX  97
$$

TXZ173-191>194-202-209-217>225-228-012000-
CENTRAL AND SOUTH CENTRAL TEXAS

CITY           SKY/WX    TMP DP  RH WIND       PRES   REMARKS
GEORGETOWN     MOSUNNY   84  66  54 MISG      30.05S
AUSTIN/BERGSTM PTSUNNY   90  66  45 N9G18     30.01F HX  92
AUSTIN/MABRY   SUNNY     88  66  48 N8G18     30.02F HX  90
*AUSTIN/EXEC   MOSUNNY   84  66  54 N14       30.03F
*LAGO VISTA    MOSUNNY   86  62  44 N7G17     30.06F
SAN MARCOS     CLOUDY    88  64  45 NE7       30.03F
NEW BRAUNFELS  PTSUNNY   89  64  43 VRB7      30.00F HX  90
RANDOLPH AFB   PTSUNNY   88  64  43 VRB6      30.01F
PT SAN ANTONIO MOSUNNY   88  66  47 NE6       30.00F HX  90
SAN ANTONIO    PTSUNNY   90  66  45 E9        30.02F HX  92
STINSON FIELD  PTSUNNY   91  66  43 CALM      29.99F HX  93
*PLEASANTON    PTSUNNY   91  67  44 NE6       29.99F HX  94
*LA GRANGE     MOSUNNY   85  71  61 N9        29.99F HX  90
*GIDDINGS      CLOUDY    85  67  54 N5        30.05F
*GONZALES      CLOUDY    89  67  49 N3        29.99F HX  92
$$

TXZ163>164-176>182-195>201-210>213-226-227-235-012000-
SOUTHEAST TEXAS

CITY           SKY/WX    TMP DP  RH WIND       PRES   REMARKS
COLLEGE STN    PTSUNNY   82  69  64 N8        30.01F
*BRYAN         CLOUDY    82  70  66 N8        30.01F
*CALDWELL      PTSUNNY   84  66  54 NW8       30.04F
*CROCKETT      CLOUDY    77  72  83 N7        30.05S
*BRENHAM       MOSUNNY   82  69  64 NE7       30.01F
HUNTSVILLE     CLOUDY    78  69  73 NW9       30.02S
CONROE         PTSUNNY   82  70  66 NW9       30.01S
HOUSTON BUSH   PTSUNNY   84  71  65 NW6       29.98F
HOUSTON HOBBY  MOSUNNY   87  72  60 W9        29.96F HX  93
*HOUSTON SW AP   N/A     88  72  59 W10G16    29.98F HX  94
PEARLAND       PTSUNNY   88  73  61 NW9       29.98F HX  95
HOUSTON HOOKS  CLOUDY    83  72  69 NW8       29.99F
ELLINGTON FLD  PTSUNNY   88  72  58 W10       29.98F HX  94
SUGAR LAND     PTSUNNY   86  74  67 N8        29.98F HX  94
*HOUSTON EXEC  CLOUDY    82  72  69 NW6       30.01F
*CLEVELAND MUN PTSUNNY   84  73  69 W6        29.99F HX  90
*WHARTON       MOSUNNY   87  73  62 NW8       29.99F HX  95
$$

TXZ214>216-236>238-012000-
THE UPPER TEXAS COAST

CITY           SKY/WX    TMP DP  RH WIND       PRES   REMARKS
*ORANGE        MOSUNNY   86  76  71 W6        29.97F HX  95
PORT ARTHUR    MOSUNNY   88  75  65 W9        29.95F HX  97
GALVESTON      MOSUNNY   79  75  87 W8        29.97F
ANGLETON       PTSUNNY   87  75  67 NW8       29.97S HX  96
*BAY CITY      RAIN      89  77  67 N6        29.97S HX 101
PALACIOS       PTSUNNY   90  76  63 S13       29.96F HX 101
$$

TXZ229>234-239>247-012000-
TEXAS COASTAL BEND AND RIO GRANDE PLAINS

CITY           SKY/WX    TMP DP  RH WIND       PRES   REMARKS
VICTORIA       MOSUNNY   95  73  48 VRB5      29.97F HX 104
*BEEVILLE      MOSUNNY   97  68  38 SE6       29.95F HX 102
ROCKPORT       PTSUNNY   91  75  59 SE12      29.95F HX 101
*PORT ARANSAS  MOSUNNY   85  77  76 SE6       29.97F HX  96
*PORT LAVACA   CLOUDY    90  73  56 SW5       29.96F HX  98
*INGLESIDE     PTSUNNY   94  73  50 S13G18    29.96F HX 102
CORPUS CHRISTI PTSUNNY   93  72  50 S8G16     29.95F HX 101
CORPUS NAS     PTSUNNY   89  77  67 S14       29.97S HX 101
*ROBSTOWN      NOT AVBL
ALICE          PTSUNNY   96  71  44 SE6       29.94F HX 103
KINGSVILLE NAS CLOUDY    97  75  49 S10       29.94F HX 109
COTULLA        MOSUNNY   94  67  41 CALM      29.97F HX  97
*FAITH RANCH   MOSUNNY   91  70  49 NE10      30.00F HX  97
LAREDO         MOSUNNY   96  71  44 VRB5      29.97F HX 103
$$

TXZ248>255-012000-
DEEP SOUTH TEXAS

CITY           SKY/WX    TMP DP  RH WIND       PRES   REMARKS
BROWNSVILLE    MOSUNNY   97  74  47 S13G23    29.93F HX 108
PORT ISABEL    MOSUNNY   91  76  61 E17G25    29.93F HX 103
*SOUTH PADRE   MOSUNNY   90  79  70 SE12      29.95F HX 105
HARLINGEN      MOSUNNY   97  71  42 S9G18     29.92F HX 104
*HEBBRONVILLE  MOSUNNY   92  68  44 CALM      29.96F HX  97
MCALLEN        MOSUNNY   96  70  42 VRB5      29.92F HX 102
*WESLACO       MOSUNNY   98  66  35 SE7       29.92F HX 101
FALFURRIAS     MOSUNNY   85  64  48 S7        29.93F
EDINBURG       MOSUNNY   97  67  37 SE8       29.93F HX 101
*ZAPATA        MOSUNNY   98  67  36 CALM      29.92F HX 102
$$

TXZ213>215-236>238-242>244-246-247-251-254-255-012000-
CMAN STATIONS

STATION/POSITION TIME  TEMP    WIND        PRES    WAVE
                       AIR SEA DIR/SP/G            HT/PER
                 (UTC) (F)     (DEG/KT/KT) (MB)    (FT/S)
SABINE PASS      1900   86 86  240/  6/ 14 1014.5
SEA RIM ST PARK  1900   84     220/ 12/ 14 1014.9
NORTH JETTY/GLS  1900   87 90  310/  5/  7   N/A
EAGLE POINT      1900   87 86  310/  6/ 11 1014.7
MORGANS POINT    1900   85 92  310/  7/ 11 1014.6
MISSION/ARANSAS  1800   83     140/ 12     1016.0
PORT O`CONNOR    1900          190/ 12/ 15   N/A
PORT ARANSAS     1900   82 83  120/  5/  6 1015.7
MALAQUITE BEACH  1900   80 79  100/  6/  7 1014.4
BAFFIN BAY       1900   85 85  120/ 10/ 12 1014.6
PORT ISABEL      1900   86 83  140/ 12/ 21 1014.4
$$

GMZ080-GMZ150>470-012000-
OFFSHORE BUOY REPORTS

STATION/POSITION TIME  TEMP    WIND        PRES    WAVE
                       AIR SEA DIR/SP/G            HT/PER
                 (UTC) (F)     (DEG/KT/KT) (MB)    (FT/S)
90 E PT ARANSAS  1900   84 85  300/  2/  2 1015.6    3/ 5
35 NE PT MANSFLD 1900   84 84  160/  8/ 10 1014.5    2/ 5
200 E PT ISABEL  1900   85 88  290/  2/  4 1015.3    1/ 5
$$